Weather History for Modesto, CA

Change the Weather History Date:

Saturday, June 2, 2012

  Actual Average Record
Temperature  
Mean Temperature 79 °F -  
Max Temperature 92 °F 87 °F 109 °F (1960)
Min Temperature 65 °F 58 °F 42 °F (1966)
Degree Days  
Heating Degree Days 0 0  
Month to date heating degree days 0 0  
Since 1 June heating degree days 0 0  
Since 1 July heating degree days 2511 2168  
Cooling Degree Days 14 7  
Month to date cooling degree days 30 14  
Year to date cooling degree days 229 213  
Since 1 June cooling degree days 30 14  
Growing Degree Days 28 (Base 50)    
Moisture  
Dew Point 46 °F    
Average Humidity 37    
Maximum Humidity 58    
Minimum Humidity 16    
Precipitation  
Precipitation 0.00 in 0.01 in 0.17 in (1985)
Month to date precipitation 0.00 0.02  
Year to date precipitation 6.75 8.65  
Since 1 July precipitation 8.63 13.01  
Snow  
Snow 0.00 in - - ()
Month to date snowfall 0.0  
Since 1 June snowfall 0.0  
Since 1 July snowfall 0.0  
Snow Depth -    
Sea Level Pressure  
Sea Level Pressure 29.82 in    
Wind  
Wind Speed 11 mph (NW)    
Max Wind Speed 23 mph    
Max Gust Speed 31 mph    
Visibility 10 miles    
Events      
T = Trace of Precipitation, MM = Missing Value Source: NWS Daily Summary

Daily Weather History Graph

Daily Weather History Graph

Search for Another Location

Airport:

Trip Planner

Search our weather history database for the weather conditions in past years. The results will help you decide how hot, cold, wet, or windy it might be!

Date:

Astronomy

Jun. 02, 2012 Rise Set
Actual Time 5:43 AM PDT 8:20 PM PDT
Civil Twilight 5:12 AM PDT 8:51 PM PDT
Nautical Twilight 4:34 AM PDT 9:29 PM PDT
Astronomical Twilight 3:51 AM PDT 10:12 PM PDT
Moon 6:43 PM PDT (6/2) 4:04 AM PDT (6/2)
Length of Visible Light 15h 38m
Length of Day
14h 37m
Waxing Gibbous, 96% of the Moon is Illuminated
Jun 2
Waxing Gibbous
Jun 4
Full
Jun 11
Last Quarter
Jun 19
New
Jun 26
First Quarter

Hourly Weather History & Observations

Time (PDT) Temp. Heat Index Dew Point Humidity Pressure Visibility Wind Dir Wind Speed Gust Speed Precip Events Conditions
12:53 AM 73.0 °F - 53.1 °F 49% 29.75 in 10.0 mi North 4.6 mph - N/A   Clear
1:53 AM 71.1 °F - 50.0 °F 47% 29.75 in 10.0 mi NNW 11.5 mph - N/A   Clear
2:53 AM 71.1 °F - 46.9 °F 42% 29.75 in 10.0 mi NNW 10.4 mph - N/A   Clear
3:53 AM 69.1 °F - 46.9 °F 45% 29.76 in 10.0 mi NNW 10.4 mph - N/A   Clear
4:53 AM 68.0 °F - 48.0 °F 49% 29.77 in 10.0 mi NNW 10.4 mph - N/A   Clear
5:53 AM 66.0 °F - 50.0 °F 56% 29.79 in 10.0 mi NNW 9.2 mph - N/A   Clear
6:53 AM 66.9 °F - 51.1 °F 57% 29.81 in 10.0 mi NNW 10.4 mph - N/A   Clear
7:53 AM 71.1 °F - 52.0 °F 51% 29.83 in 10.0 mi NNW 10.4 mph - N/A   Clear
8:53 AM 73.9 °F - 53.1 °F 48% 29.84 in 10.0 mi NNW 8.1 mph - N/A   Clear
9:53 AM 78.1 °F - 52.0 °F 40% 29.84 in 10.0 mi NW 8.1 mph - N/A   Clear
10:53 AM 82.0 °F 81.2 °F 53.1 °F 37% 29.85 in 10.0 mi WNW 13.8 mph - N/A   Clear
11:53 AM 84.9 °F 83.2 °F 53.1 °F 33% 29.85 in 10.0 mi WNW 15.0 mph - N/A   Clear
12:53 PM 89.1 °F 86.9 °F 54.0 °F 30% 29.84 in 10.0 mi WNW 19.6 mph 26.5 mph N/A   Clear
1:53 PM 90.0 °F 87.5 °F 53.1 °F 28% 29.82 in 10.0 mi WNW 17.3 mph 24.2 mph N/A   Clear
2:53 PM 91.0 °F - 46.9 °F 22% 29.82 in 10.0 mi NW 15.0 mph 27.6 mph N/A   Clear
3:53 PM 90.0 °F - 46.0 °F 22% 29.81 in 10.0 mi NW 16.1 mph 27.6 mph N/A   Clear
4:53 PM 89.1 °F - 37.9 °F 16% 29.81 in 10.0 mi WNW 20.7 mph 24.2 mph N/A   Clear
5:53 PM 86.0 °F - 39.0 °F 19% 29.81 in 10.0 mi NW 18.4 mph - N/A   Clear
6:53 PM 82.9 °F - 25.0 °F 12% 29.81 in 10.0 mi NW 19.6 mph 25.3 mph N/A   Clear
7:53 PM 79.0 °F - 34.0 °F 20% 29.83 in 10.0 mi NW 15.0 mph - N/A   Clear
8:53 PM 75.0 °F - 37.0 °F 25% 29.85 in 10.0 mi NW 13.8 mph - N/A   Clear
9:53 PM 72.0 °F - 39.0 °F 30% 29.87 in 10.0 mi NNW 10.4 mph - N/A   Clear
10:53 PM 68.0 °F - 42.1 °F 39% 29.88 in 10.0 mi North 11.5 mph - N/A   Clear
11:53 PM 64.9 °F - 44.1 °F 47% 29.89 in 10.0 mi North 9.2 mph - N/A   Clear